Flag Weather past 2 weeks in Guiyang, Guizhou, China

Now
70 °F

Passing clouds.


Feels Like: 70 °F
Forecast: 58 / 65 °F
Wind: 10 mph from North

Location: Guiyang Airport

Current Time: Oct 31, 2014 at 2:34:30 PM

Latest Report: Oct 31, 2014 at 2:00 PM


Visibility: N/A

Pressure: 29.98 "Hg

Humidity: 73%

Dew point: 61 °F

Location of GuiyangLocation

Historic Weather in Guiyang — Graph

°F

Guiyang temperature yesterday

Maximum temperature yesterday: 79 °F (at 1:00 PM)
Minimum temperature yesterday: 61 °F (at 12:00 AM)
Average temperature yesterday: 69 °F

Past Weeks' High & Low Weather Summary

 TemperatureHumidityPressure
High79 °F (Oct 25, 3:00 PM)100% (Oct 17, 7:00 AM)30.33 "Hg (Oct 17, 7:00 AM)
Low48 °F (Oct 23, 3:00 AM)47% (Oct 22, 4:00 PM)29.92 "Hg (Oct 30, 5:00 PM)
Average64 °F84%30.11 "Hg
* Reported Oct 16 1:00 PM — Oct 31 1:00 PM, Guiyang, Weather by CustomWeather, © 2014

Note: Actual official high and low records may vary slightly from our data, if they occured in-between our weather recording intervals... More about our weather records

Advertising

Guiyang weather history for previous 24 hours

 ConditionsComfort  
Time TempWeatherWind HumidityBarometerVisibility
1:00 PM
Oct 31
68 °FScattered clouds.13 mph78%30.01 "HgN/A
12:00 PM66 °FScattered clouds.10 mph83%30.04 "HgN/A
11:00 AM70 °FScattered clouds.8 mph78%30.07 "HgN/A
10:00 AM64 °FScattered clouds.6 mph94%30.07 "Hg5 mi
9:00 AM63 °FFog.3 mph100%30.07 "Hg3 mi
8:00 AM61 °FFog.3 mph100%30.04 "Hg2 mi
7:00 AM59 °FFog.6 mph100%30.04 "Hg3 mi
6:00 AM63 °FPassing clouds.3 mph100%30.01 "Hg4 mi
5:00 AM63 °FPassing clouds.1 mph100%30.01 "HgN/A
4:00 AM64 °FPassing clouds.1 mph94%30.01 "HgN/A
3:00 AM66 °FOvercast.6 mph88%30.01 "HgN/A
2:00 AM66 °FPassing clouds.6 mph94%30.01 "HgN/A
1:00 AM68 °FLight rain. Passing clouds.6 mph88%30.01 "HgN/A
12:00 AM68 °FPassing clouds.3 mph88%30.01 "HgN/A
11:00 PM
Oct 30
70 °FPassing clouds.1 mph83%30.01 "HgN/A
10:00 PM70 °FPassing clouds.3 mph78%30.01 "HgN/A
9:00 PM68 °FPassing clouds.1 mph83%30.01 "HgN/A
8:00 PM68 °FClear.3 mph78%29.98 "Hg10 mi
7:00 PM72 °FPassing clouds.8 mph69%29.95 "HgN/A
6:00 PM72 °FScattered clouds.6 mph73%29.95 "HgN/A
5:00 PM75 °FPassing clouds.15 mph65%29.92 "HgN/A
4:00 PM79 °FScattered clouds.13 mph58%29.95 "HgN/A
3:00 PM77 °FScattered clouds.15 mph61%29.95 "HgN/A
2:00 PM77 °FScattered clouds.17 mph57%29.98 "HgN/A
Weather by CustomWeather, © 2014

See weather overviewHow to use our weather pages